Time,TemperatureF,DewpointF,PressureIn,WindDirection,WindDirectionDegrees,WindSpeedMPH,WindSpeedGustMPH,Humidity,HourlyPrecipIn,Conditions,Clouds,dailyrainin,SoftwareType,DateUTC
2013-02-02 00:00:00,21.6,8.7,30.11,NW,324,2.0,2.0,57,0.00,,,0.00,Wunderground v.1.15,2013-02-02 05:00:00,
2013-02-02 00:02:00,21.6,8.7,30.11,NW,325,2.0,3.0,57,0.00,,,0.00,Wunderground v.1.15,2013-02-02 05:02:00,
2013-02-02 00:03:00,21.6,8.7,30.12,NW,316,2.0,7.0,57,0.00,,,0.00,Wunderground v.1.15,2013-02-02 05:03:00,
2013-02-02 00:10:00,21.6,8.7,30.12,NNW,328,2.0,2.0,57,0.00,,,0.00,Wunderground v.1.15,2013-02-02 05:10:00,
2013-02-02 00:15:00,21.5,9.4,30.12,NNW,330,1.0,7.0,59,0.00,,,0.00,Wunderground v.1.15,2013-02-02 05:15:00,
2013-02-02 00:18:00,21.5,8.6,30.12,NNW,332,1.0,7.0,57,0.00,,,0.00,Wunderground v.1.15,2013-02-02 05:18:00,
2013-02-02 00:23:00,21.6,8.3,30.12,NW,323,2.0,8.0,56,0.00,,,0.00,Wunderground v.1.15,2013-02-02 05:23:00,
2013-02-02 00:30:00,21.7,8.4,30.12,NNW,338,2.0,8.0,56,0.00,,,0.00,Wunderground v.1.15,2013-02-02 05:30:00,
2013-02-02 00:36:00,21.6,8.3,30.12,NW,316,1.0,8.0,56,0.00,,,0.00,Wunderground v.1.15,2013-02-02 05:36:00,
2013-02-02 00:42:00,21.5,8.2,30.12,NW,316,1.0,8.0,56,0.00,,,0.00,Wunderground v.1.15,2013-02-02 05:42:00,
2013-02-02 00:48:00,21.5,8.2,30.12,NNW,327,1.0,8.0,56,0.00,,,0.00,Wunderground v.1.15,2013-02-02 05:48:00,
2013-02-02 00:54:00,21.4,8.1,30.12,NW,320,2.0,8.0,56,0.00,,,0.00,Wunderground v.1.15,2013-02-02 05:54:00,
2013-02-02 01:00:00,21.4,8.1,30.12,WNW,294,1.0,8.0,56,0.00,,,0.00,Wunderground v.1.15,2013-02-02 06:00:00,
2013-02-02 01:06:00,21.3,8.0,30.13,NW,306,1.0,8.0,56,0.00,,,0.00,Wunderground v.1.15,2013-02-02 06:06:00,
2013-02-02 01:12:00,21.3,8.0,30.13,NNW,328,1.0,8.0,56,0.00,,,0.00,Wunderground v.1.15,2013-02-02 06:12:00,
2013-02-02 01:18:00,21.2,8.3,30.13,NW,304,1.0,8.0,57,0.00,,,0.00,Wunderground v.1.15,2013-02-02 06:18:00,
2013-02-02 01:24:00,21.2,8.3,30.13,NW,326,0.0,8.0,57,0.00,,,0.00,Wunderground v.1.15,2013-02-02 06:24:00,
2013-02-02 01:29:00,21.2,8.3,30.14,NW,321,1.0,5.0,57,0.00,,,0.00,Wunderground v.1.15,2013-02-02 06:29:00,
2013-02-02 01:36:00,21.3,8.4,30.14,NNW,332,2.0,5.0,57,0.00,,,0.00,Wunderground v.1.15,2013-02-02 06:36:00,
2013-02-02 01:41:00,21.3,8.4,30.14,NW,312,1.0,5.0,57,0.00,,,0.00,Wunderground v.1.15,2013-02-02 06:41:00,
2013-02-02 01:47:00,21.3,8.4,30.15,NW,316,0.0,5.0,57,0.00,,,0.00,Wunderground v.1.15,2013-02-02 06:47:00,
2013-02-02 01:53:00,21.2,8.7,30.14,NW,317,0.0,6.0,58,0.00,,,0.00,Wunderground v.1.15,2013-02-02 06:53:00,
2013-02-02 02:00:00,21.2,8.7,30.14,NW,314,0.0,6.0,58,0.00,,,0.00,Wunderground v.1.15,2013-02-02 07:00:00,
2013-02-02 02:05:00,21.1,9.0,30.15,NW,317,0.0,6.0,59,0.00,,,0.00,Wunderground v.1.15,2013-02-02 07:05:00,
2013-02-02 02:12:00,21.2,8.7,30.15,NW,318,1.0,6.0,58,0.00,,,0.00,Wunderground v.1.15,2013-02-02 07:12:00,
2013-02-02 02:18:00,21.2,8.7,30.15,NW,326,1.0,6.0,58,0.00,,,0.00,Wunderground v.1.15,2013-02-02 07:18:00,
2013-02-02 02:24:00,21.1,9.0,30.15,NW,320,1.0,5.0,59,0.00,,,0.00,Wunderground v.1.15,2013-02-02 07:24:00,
2013-02-02 02:30:00,21.2,9.1,30.15,NW,320,1.0,5.0,59,0.00,,,0.00,Wunderground v.1.15,2013-02-02 07:30:00,
2013-02-02 02:36:00,21.2,9.1,30.15,NW,322,1.0,5.0,59,0.00,,,0.00,Wunderground v.1.15,2013-02-02 07:36:00,
2013-02-02 02:42:00,21.1,9.0,30.15,NW,319,0.0,5.0,59,0.00,,,0.00,Wunderground v.1.15,2013-02-02 07:42:00,
2013-02-02 02:48:00,21.1,9.0,30.15,NW,321,0.0,5.0,59,0.00,,,0.00,Wunderground v.1.15,2013-02-02 07:48:00,
2013-02-02 02:53:00,21.1,9.0,30.15,NW,305,1.0,5.0,59,0.00,,,0.00,Wunderground v.1.15,2013-02-02 07:53:00,
2013-02-02 02:59:00,21.2,9.1,30.15,WNW,299,2.0,2.0,59,0.00,,,0.00,Wunderground v.1.15,2013-02-02 07:59:00,
2013-02-02 03:05:00,21.1,9.4,30.16,NNW,327,1.0,5.0,60,0.00,,,0.00,Wunderground v.1.15,2013-02-02 08:05:00,
2013-02-02 03:11:00,21.0,9.3,30.16,NW,305,1.0,3.0,60,0.00,,,0.00,Wunderground v.1.15,2013-02-02 08:11:00,
2013-02-02 03:18:00,21.1,9.4,30.16,NW,326,2.0,5.0,60,0.00,,,0.00,Wunderground v.1.15,2013-02-02 08:18:00,
2013-02-02 03:24:00,21.1,9.4,30.16,NNW,328,1.0,5.0,60,0.00,,,0.00,Wunderground v.1.15,2013-02-02 08:24:00,
2013-02-02 03:30:00,21.0,9.6,30.16,NW,314,1.0,4.0,61,0.00,,,0.00,Wunderground v.1.15,2013-02-02 08:30:00,
2013-02-02 03:36:00,21.1,9.4,30.16,NW,326,1.0,4.0,60,0.00,,,0.00,Wunderground v.1.15,2013-02-02 08:36:00,
2013-02-02 03:42:00,21.2,9.5,30.16,NW,316,2.0,4.0,60,0.00,,,0.00,Wunderground v.1.15,2013-02-02 08:42:00,
2013-02-02 03:48:00,21.3,9.6,30.16,NW,326,2.0,4.0,60,0.00,,,0.00,Wunderground v.1.15,2013-02-02 08:48:00,
2013-02-02 03:53:00,21.2,9.5,30.16,NNW,330,1.0,7.0,60,0.00,,,0.00,Wunderground v.1.15,2013-02-02 08:53:00,
2013-02-02 03:59:00,21.3,9.6,30.16,NW,305,2.0,7.0,60,0.00,,,0.00,Wunderground v.1.15,2013-02-02 08:59:00,
2013-02-02 04:05:00,21.2,9.5,30.17,NNW,345,2.0,7.0,60,0.00,,,0.00,Wunderground v.1.15,2013-02-02 09:05:00,
2013-02-02 04:11:00,21.1,9.7,30.17,WNW,299,2.0,7.0,61,0.00,,,0.00,Wunderground v.1.15,2013-02-02 09:11:00,
2013-02-02 04:17:00,20.9,9.5,30.17,NW,326,1.0,7.0,61,0.00,,,0.00,Wunderground v.1.15,2013-02-02 09:17:00,
2013-02-02 04:23:00,20.8,9.8,30.17,NNW,337,1.0,8.0,62,0.00,,,0.00,Wunderground v.1.15,2013-02-02 09:23:00,
2013-02-02 04:29:00,20.7,10.1,30.17,NNW,328,1.0,8.0,63,0.00,,,0.00,Wunderground v.1.15,2013-02-02 09:29:00,
2013-02-02 04:35:00,20.6,10.0,30.17,WNW,294,1.0,8.0,63,0.00,,,0.00,Wunderground v.1.15,2013-02-02 09:35:00,
2013-02-02 04:42:00,20.6,10.0,30.17,NW,323,1.0,8.0,63,0.00,,,0.00,Wunderground v.1.15,2013-02-02 09:42:00,
2013-02-02 04:47:00,20.5,9.9,30.18,WSW,258,1.0,8.0,63,0.00,,,0.00,Wunderground v.1.15,2013-02-02 09:47:00,
2013-02-02 04:54:00,20.4,10.1,30.18,NW,324,1.0,8.0,64,0.00,,,0.00,Wunderground v.1.15,2013-02-02 09:54:00,
2013-02-02 05:00:00,20.3,9.7,30.18,NW,326,2.0,2.0,63,0.00,,,0.00,Wunderground v.1.15,2013-02-02 10:00:00,
2013-02-02 05:06:00,20.3,10.1,30.19,NW,310,2.0,4.0,64,0.00,,,0.00,Wunderground v.1.15,2013-02-02 10:06:00,
2013-02-02 05:12:00,20.2,10.0,30.19,NW,314,1.0,3.0,64,0.00,,,0.00,Wunderground v.1.15,2013-02-02 10:12:00,
2013-02-02 05:18:00,20.3,10.4,30.19,NW,326,1.0,4.0,65,0.00,,,0.00,Wunderground v.1.15,2013-02-02 10:18:00,
2013-02-02 05:23:00,20.3,10.1,30.19,NNW,329,1.0,7.0,64,0.00,,,0.00,Wunderground v.1.15,2013-02-02 10:23:00,
2013-02-02 05:29:00,20.3,10.1,30.19,NW,319,1.0,7.0,64,0.00,,,0.00,Wunderground v.1.15,2013-02-02 10:29:00,
2013-02-02 05:35:00,20.2,10.0,30.19,NNE,20,2.0,7.0,64,0.00,,,0.00,Wunderground v.1.15,2013-02-02 10:35:00,
2013-02-02 05:41:00,20.1,10.2,30.19,NW,317,1.0,2.0,65,0.00,,,0.00,Wunderground v.1.15,2013-02-02 10:41:00,
2013-02-02 05:47:00,19.9,10.0,30.20,NW,322,1.0,7.0,65,0.00,,,0.00,Wunderground v.1.15,2013-02-02 10:47:00,
2013-02-02 05:53:00,19.8,10.3,30.19,NW,322,0.0,6.0,66,0.00,,,0.00,Wunderground v.1.15,2013-02-02 10:53:00,
2013-02-02 05:59:00,19.6,10.4,30.19,NW,322,0.0,6.0,67,0.00,,,0.00,Wunderground v.1.15,2013-02-02 10:59:00,
2013-02-02 06:05:00,19.5,10.3,30.19,NW,322,0.0,6.0,67,0.00,,,0.00,Wunderground v.1.15,2013-02-02 11:05:00,
2013-02-02 06:11:00,19.5,10.6,30.19,NW,322,0.0,6.0,68,0.00,,,0.00,Wunderground v.1.15,2013-02-02 11:11:00,
2013-02-02 06:18:00,19.6,10.4,30.19,NW,326,0.0,6.0,67,0.00,,,0.00,Wunderground v.1.15,2013-02-02 11:18:00,
2013-02-02 06:24:00,19.3,10.1,30.20,NW,326,0.0,6.0,67,0.00,,,0.00,Wunderground v.1.15,2013-02-02 11:24:00,
2013-02-02 06:30:00,19.0,10.5,30.20,NW,326,0.0,3.0,69,0.00,,,0.00,Wunderground v.1.15,2013-02-02 11:30:00,
2013-02-02 06:36:00,18.7,10.9,30.20,NW,326,0.0,3.0,71,0.00,,,0.00,Wunderground v.1.15,2013-02-02 11:36:00,
2013-02-02 06:42:00,18.6,10.8,30.20,NW,326,0.0,3.0,71,0.00,,,0.00,Wunderground v.1.15,2013-02-02 11:42:00,
2013-02-02 06:48:00,18.5,10.3,30.21,NW,326,0.0,3.0,70,0.00,,,0.00,Wunderground v.1.15,2013-02-02 11:48:00,
2013-02-02 06:54:00,18.3,10.1,30.20,NW,325,0.0,3.0,70,0.00,,,0.00,Wunderground v.1.15,2013-02-02 11:54:00,
2013-02-02 06:59:00,18.0,10.2,30.21,NW,326,0.0,3.0,71,0.00,,,0.00,Wunderground v.1.15,2013-02-02 11:59:00,
2013-02-02 07:05:00,17.9,10.7,30.21,NW,326,0.0,3.0,73,0.00,,,0.00,Wunderground v.1.15,2013-02-02 12:05:00,
2013-02-02 07:11:00,18.0,11.1,30.21,NW,325,0.0,3.0,74,0.00,,,0.00,Wunderground v.1.15,2013-02-02 12:11:00,
2013-02-02 07:17:00,18.0,10.8,30.22,NW,325,0.0,3.0,73,0.00,,,0.00,Wunderground v.1.15,2013-02-02 12:17:00,
2013-02-02 07:23:00,18.0,10.8,30.22,NW,310,0.0,3.0,73,0.00,,,0.00,Wunderground v.1.15,2013-02-02 12:23:00,
2013-02-02 07:29:00,18.0,10.8,30.22,NW,311,0.0,2.0,73,0.00,,,0.00,Wunderground v.1.15,2013-02-02 12:29:00,
2013-02-02 07:35:00,18.3,11.4,30.22,NW,311,0.0,2.0,74,0.00,,,0.00,Wunderground v.1.15,2013-02-02 12:35:00,
2013-02-02 07:41:00,18.8,11.6,30.22,NW,311,0.0,2.0,73,0.00,,,0.00,Wunderground v.1.15,2013-02-02 12:41:00,
2013-02-02 07:47:00,19.3,11.7,30.22,NW,312,0.0,2.0,72,0.00,,,0.00,Wunderground v.1.15,2013-02-02 12:47:00,
2013-02-02 07:54:00,19.8,11.3,30.22,NW,316,1.0,2.0,69,0.00,,,0.00,Wunderground v.1.15,2013-02-02 12:54:00,
2013-02-02 08:00:00,20.2,11.7,30.23,NNW,335,1.0,1.0,69,0.00,,,0.00,Wunderground v.1.15,2013-02-02 13:00:00,
2013-02-02 08:06:00,20.7,11.8,30.23,North,8,0.0,2.0,68,0.00,,,0.00,Wunderground v.1.15,2013-02-02 13:06:00,
2013-02-02 08:12:00,21.5,12.6,30.23,North,359,0.0,1.0,68,0.00,,,0.00,Wunderground v.1.15,2013-02-02 13:12:00,
2013-02-02 08:18:00,22.0,12.4,30.23,NNW,335,1.0,2.0,66,0.00,,,0.00,Wunderground v.1.15,2013-02-02 13:18:00,
2013-02-02 08:23:00,22.5,12.5,30.23,WNW,303,2.0,5.0,65,0.00,,,0.00,Wunderground v.1.15,2013-02-02 13:23:00,
2013-02-02 08:30:00,22.9,12.2,30.23,NW,317,3.0,4.0,63,0.00,,,0.00,Wunderground v.1.15,2013-02-02 13:30:00,
2013-02-02 08:35:00,23.2,12.5,30.23,NNW,337,3.0,4.0,63,0.00,,,0.00,Wunderground v.1.15,2013-02-02 13:35:00,
2013-02-02 08:41:00,23.5,12.4,30.23,NNE,12,2.0,4.0,62,0.00,,,0.00,Wunderground v.1.15,2013-02-02 13:41:00,
2013-02-02 08:47:00,23.6,12.5,30.23,NNW,336,3.0,4.0,62,0.00,,,0.00,Wunderground v.1.15,2013-02-02 13:47:00,
2013-02-02 08:53:00,23.7,12.6,30.23,NNE,26,4.0,11.0,62,0.00,,,0.00,Wunderground v.1.15,2013-02-02 13:53:00,
2013-02-02 08:59:00,23.8,12.3,30.23,North,11,4.0,4.0,61,0.00,,,0.00,Wunderground v.1.15,2013-02-02 13:59:00,
2013-02-02 09:05:00,24.0,12.1,30.23,NNW,333,3.0,11.0,60,0.00,,,0.00,Wunderground v.1.15,2013-02-02 14:05:00,
2013-02-02 09:11:00,24.4,12.1,30.23,NE,54,3.0,11.0,59,0.00,,,0.00,Wunderground v.1.15,2013-02-02 14:11:00,
2013-02-02 09:17:00,24.6,12.3,30.23,NW,320,2.0,11.0,59,0.00,,,0.00,Wunderground v.1.15,2013-02-02 14:17:00,
2013-02-02 09:24:00,25.0,12.7,30.23,WNW,293,2.0,11.0,59,0.00,,,0.00,Wunderground v.1.15,2013-02-02 14:24:00,
2013-02-02 09:30:00,25.1,12.0,30.23,WSW,258,2.0,2.0,57,0.00,,,0.00,Wunderground v.1.15,2013-02-02 14:30:00,
2013-02-02 09:36:00,25.5,12.0,30.23,NW,316,1.0,11.0,56,0.00,,,0.00,Wunderground v.1.15,2013-02-02 14:36:00,
2013-02-02 09:42:00,25.7,12.2,30.22,WNW,283,2.0,4.0,56,0.00,,,0.00,Wunderground v.1.15,2013-02-02 14:42:00,
2013-02-02 09:47:00,25.5,11.6,30.22,NW,322,2.0,11.0,55,0.00,,,0.00,Wunderground v.1.15,2013-02-02 14:47:00,
2013-02-02 09:53:00,25.8,11.8,30.22,WNW,303,2.0,11.0,55,0.00,,,0.00,Wunderground v.1.15,2013-02-02 14:53:00,
2013-02-02 10:00:00,26.2,11.8,30.22,NW,323,1.0,7.0,54,0.00,,,0.00,Wunderground v.1.15,2013-02-02 15:00:00,
2013-02-02 10:06:00,26.6,12.2,30.22,NW,318,1.0,7.0,54,0.00,,,0.00,Wunderground v.1.15,2013-02-02 15:06:00,
2013-02-02 10:12:00,27.1,12.2,30.22,SE,129,0.0,7.0,53,0.00,,,0.00,Wunderground v.1.15,2013-02-02 15:12:00,
2013-02-02 10:18:00,27.4,11.2,30.22,NW,314,1.0,7.0,50,0.00,,,0.00,Wunderground v.1.15,2013-02-02 15:18:00,
2013-02-02 10:24:00,26.9,11.2,30.22,West,261,3.0,7.0,51,0.00,,,0.00,Wunderground v.1.15,2013-02-02 15:24:00,
2013-02-02 10:30:00,27.1,10.4,30.21,WNW,297,3.0,3.0,49,0.00,,,0.00,Wunderground v.1.15,2013-02-02 15:30:00,
2013-02-02 10:35:00,27.4,11.2,30.21,West,270,3.0,7.0,50,0.00,,,0.00,Wunderground v.1.15,2013-02-02 15:35:00,
2013-02-02 10:41:00,27.5,10.8,30.21,North,354,3.0,7.0,49,0.00,,,0.00,Wunderground v.1.15,2013-02-02 15:41:00,
2013-02-02 10:47:00,27.4,10.7,30.21,WSW,257,2.0,7.0,49,0.00,,,0.00,Wunderground v.1.15,2013-02-02 15:47:00,
2013-02-02 10:54:00,27.9,11.6,30.20,South,184,2.0,8.0,50,0.00,,,0.00,Wunderground v.1.15,2013-02-02 15:54:00,
2013-02-02 11:00:00,28.3,12.0,30.20,NNW,330,2.0,8.0,50,0.00,,,0.00,Wunderground v.1.15,2013-02-02 16:00:00,
2013-02-02 11:06:00,28.0,11.7,30.20,West,270,3.0,8.0,50,0.00,,,0.00,Wunderground v.1.15,2013-02-02 16:06:00,
2013-02-02 11:12:00,27.8,11.5,30.20,West,260,3.0,7.0,50,0.00,,,0.00,Wunderground v.1.15,2013-02-02 16:12:00,
2013-02-02 11:18:00,27.5,12.6,30.19,WSW,251,4.0,8.0,53,0.00,,,0.00,Wunderground v.1.15,2013-02-02 16:18:00,
2013-02-02 11:24:00,27.9,13.4,30.19,NW,310,3.0,13.0,54,0.00,,,0.00,Wunderground v.1.15,2013-02-02 16:24:00,
2013-02-02 11:29:00,27.5,13.0,30.18,NW,305,5.0,5.0,54,0.00,,,0.00,Wunderground v.1.15,2013-02-02 16:29:00,
2013-02-02 11:35:00,28.7,14.1,30.18,WNW,298,3.0,13.0,54,0.00,,,0.00,Wunderground v.1.15,2013-02-02 16:35:00,
2013-02-02 11:41:00,28.9,13.0,30.18,SW,228,2.0,13.0,51,0.00,,,0.00,Wunderground v.1.15,2013-02-02 16:41:00,
2013-02-02 11:47:00,28.3,12.9,30.18,WNW,287,3.0,13.0,52,0.00,,,0.00,Wunderground v.1.15,2013-02-02 16:47:00,
2013-02-02 11:53:00,28.1,12.3,30.17,NNW,347,3.0,13.0,51,0.00,,,0.00,Wunderground v.1.15,2013-02-02 16:53:00,
2013-02-02 12:00:00,28.3,13.3,30.17,NW,319,4.0,13.0,53,0.00,,,0.00,Wunderground v.1.15,2013-02-02 17:00:00,
2013-02-02 12:06:00,29.0,12.2,30.17,NW,316,4.0,13.0,49,0.00,,,0.00,Wunderground v.1.15,2013-02-02 17:06:00,
2013-02-02 12:12:00,28.5,12.2,30.17,NW,318,4.0,13.0,50,0.00,,,0.00,Wunderground v.1.15,2013-02-02 17:12:00,
2013-02-02 12:18:00,29.3,13.4,30.16,West,264,2.0,13.0,51,0.00,,,0.00,Wunderground v.1.15,2013-02-02 17:18:00,
2013-02-02 12:23:00,29.1,12.8,30.16,WSW,243,3.0,13.0,50,0.00,,,0.00,Wunderground v.1.15,2013-02-02 17:23:00,
2013-02-02 12:29:00,28.8,12.9,30.15,SW,235,4.0,12.0,51,0.00,,,0.00,Wunderground v.1.15,2013-02-02 17:29:00,
2013-02-02 12:35:00,28.7,12.4,30.15,WNW,301,4.0,12.0,50,0.00,,,0.00,Wunderground v.1.15,2013-02-02 17:35:00,
2013-02-02 12:41:00,29.2,12.4,30.14,North,354,4.0,12.0,49,0.00,,,0.00,Wunderground v.1.15,2013-02-02 17:41:00,
2013-02-02 12:47:00,29.7,12.8,30.14,WSW,250,3.0,12.0,49,0.00,,,0.00,Wunderground v.1.15,2013-02-02 17:47:00,
2013-02-02 12:54:00,29.0,12.7,30.13,West,280,4.0,14.0,50,0.00,,,0.00,Wunderground v.1.15,2013-02-02 17:54:00,
2013-02-02 12:59:00,29.1,13.2,30.13,East,90,4.0,4.0,51,0.00,,,0.00,Wunderground v.1.15,2013-02-02 17:59:00,
2013-02-02 13:06:00,29.7,12.8,30.13,WNW,299,4.0,14.0,49,0.00,,,0.00,Wunderground v.1.15,2013-02-02 18:06:00,
2013-02-02 13:12:00,29.9,12.1,30.12,West,274,4.0,14.0,47,0.00,,,0.00,Wunderground v.1.15,2013-02-02 18:12:00,
2013-02-02 13:18:00,30.4,12.1,30.12,NW,317,4.0,14.0,46,0.00,,,0.00,Wunderground v.1.15,2013-02-02 18:18:00,
2013-02-02 13:24:00,30.0,11.2,30.12,NW,310,5.0,14.0,45,0.00,,,0.00,Wunderground v.1.15,2013-02-02 18:24:00,
2013-02-02 13:30:00,29.8,12.0,30.12,WSW,256,5.0,14.0,47,0.00,,,0.00,Wunderground v.1.15,2013-02-02 18:30:00,
2013-02-02 13:36:00,29.8,12.0,30.11,SSW,193,5.0,14.0,47,0.00,,,0.00,Wunderground v.1.15,2013-02-02 18:36:00,
2013-02-02 13:41:00,29.9,11.6,30.11,WSW,243,5.0,14.0,46,0.00,,,0.00,Wunderground v.1.15,2013-02-02 18:41:00,
2013-02-02 13:48:00,30.2,11.4,30.10,West,270,4.0,14.0,45,0.00,,,0.00,Wunderground v.1.15,2013-02-02 18:48:00,
2013-02-02 13:53:00,30.7,12.8,30.10,WNW,286,4.0,14.0,47,0.00,,,0.00,Wunderground v.1.15,2013-02-02 18:53:00,
2013-02-02 13:59:00,30.9,12.5,30.10,South,182,3.0,3.0,46,0.00,,,0.00,Wunderground v.1.15,2013-02-02 18:59:00,
2013-02-02 14:05:00,30.3,12.0,30.10,WNW,299,5.0,14.0,46,0.00,,,0.00,Wunderground v.1.15,2013-02-02 19:05:00,
2013-02-02 14:12:00,30.1,11.8,30.09,NNW,330,4.0,14.0,46,0.00,,,0.00,Wunderground v.1.15,2013-02-02 19:12:00,
2013-02-02 14:17:00,30.1,12.3,30.09,SW,217,3.0,14.0,47,0.00,,,0.00,Wunderground v.1.15,2013-02-02 19:17:00,
2013-02-02 14:24:00,30.1,12.7,30.09,NW,307,2.0,13.0,48,0.00,,,0.00,Wunderground v.1.15,2013-02-02 19:24:00,
2013-02-02 14:30:00,30.1,12.7,30.09,West,279,3.0,13.0,48,0.00,,,0.00,Wunderground v.1.15,2013-02-02 19:30:00,
2013-02-02 14:36:00,30.4,13.0,30.09,WNW,301,3.0,13.0,48,0.00,,,0.00,Wunderground v.1.15,2013-02-02 19:36:00,
2013-02-02 14:42:00,30.9,13.5,30.09,West,281,2.0,13.0,48,0.00,,,0.00,Wunderground v.1.15,2013-02-02 19:42:00,
2013-02-02 14:47:00,30.6,12.7,30.09,NW,321,3.0,13.0,47,0.00,,,0.00,Wunderground v.1.15,2013-02-02 19:47:00,
2013-02-02 14:53:00,30.4,13.0,30.08,SW,219,4.0,13.0,48,0.00,,,0.00,Wunderground v.1.15,2013-02-02 19:53:00,
2013-02-02 14:59:00,30.4,13.0,30.08,NW,326,3.0,3.0,48,0.00,,,0.00,Wunderground v.1.15,2013-02-02 19:59:00,
2013-02-02 15:05:00,30.5,12.6,30.08,South,191,4.0,10.0,47,0.00,,,0.00,Wunderground v.1.15,2013-02-02 20:05:00,
2013-02-02 15:11:00,30.6,12.2,30.07,NW,310,4.0,11.0,46,0.00,,,0.00,Wunderground v.1.15,2013-02-02 20:11:00,
2013-02-02 15:17:00,30.8,11.9,30.07,WNW,286,4.0,11.0,45,0.00,,,0.00,Wunderground v.1.15,2013-02-02 20:17:00,
2013-02-02 15:24:00,30.5,11.7,30.07,WNW,283,4.0,18.0,45,0.00,,,0.00,Wunderground v.1.15,2013-02-02 20:24:00,
2013-02-02 15:30:00,30.3,12.0,30.07,WNW,289,4.0,4.0,46,0.00,,,0.00,Wunderground v.1.15,2013-02-02 20:30:00,
2013-02-02 15:36:00,30.2,11.9,30.07,West,281,4.0,18.0,46,0.00,,,0.00,Wunderground v.1.15,2013-02-02 20:36:00,
2013-02-02 15:42:00,29.8,12.0,30.07,NNE,33,5.0,18.0,47,0.00,,,0.00,Wunderground v.1.15,2013-02-02 20:42:00,
2013-02-02 15:48:00,29.9,11.6,30.07,West,278,4.0,18.0,46,0.00,,,0.00,Wunderground v.1.15,2013-02-02 20:48:00,
2013-02-02 15:54:00,29.8,11.5,30.07,NW,310,5.0,15.0,46,0.00,,,0.00,Wunderground v.1.15,2013-02-02 20:54:00,
2013-02-02 16:00:00,29.7,11.9,30.06,NW,326,5.0,15.0,47,0.00,,,0.00,Wunderground v.1.15,2013-02-02 21:00:00,
2013-02-02 16:05:00,29.4,12.1,30.06,SW,222,4.0,15.0,48,0.00,,,0.00,Wunderground v.1.15,2013-02-02 21:05:00,
2013-02-02 16:12:00,29.3,12.5,30.06,NW,323,4.0,15.0,49,0.00,,,0.00,Wunderground v.1.15,2013-02-02 21:12:00,
2013-02-02 16:17:00,29.2,12.8,30.06,West,273,4.0,15.0,50,0.00,,,0.00,Wunderground v.1.15,2013-02-02 21:17:00,
2013-02-02 16:23:00,29.0,13.6,30.06,WSW,254,3.0,13.0,52,0.00,,,0.00,Wunderground v.1.15,2013-02-02 21:23:00,
2013-02-02 16:29:00,29.0,13.1,30.06,NW,310,3.0,13.0,51,0.00,,,0.00,Wunderground v.1.15,2013-02-02 21:29:00,
2013-02-02 16:35:00,28.9,13.0,30.06,NW,322,3.0,13.0,51,0.00,,,0.00,Wunderground v.1.15,2013-02-02 21:35:00,
2013-02-02 16:41:00,28.8,13.4,30.06,SW,221,3.0,13.0,52,0.00,,,0.00,Wunderground v.1.15,2013-02-02 21:41:00,
2013-02-02 16:48:00,28.7,13.3,30.06,SSW,196,3.0,13.0,52,0.00,,,0.00,Wunderground v.1.15,2013-02-02 21:48:00,
2013-02-02 16:54:00,28.6,13.2,30.05,West,269,2.0,13.0,52,0.00,,,0.00,Wunderground v.1.15,2013-02-02 21:54:00,
2013-02-02 17:00:00,28.7,12.8,30.05,WNW,302,2.0,10.0,51,0.00,,,0.00,Wunderground v.1.15,2013-02-02 22:00:00,
2013-02-02 17:06:00,28.7,12.8,30.05,WSW,239,2.0,10.0,51,0.00,,,0.00,Wunderground v.1.15,2013-02-02 22:06:00,
2013-02-02 17:12:00,28.7,12.8,30.05,NW,309,2.0,10.0,51,0.00,,,0.00,Wunderground v.1.15,2013-02-02 22:12:00,
2013-02-02 17:18:00,28.6,12.7,30.05,NNW,341,2.0,10.0,51,0.00,,,0.00,Wunderground v.1.15,2013-02-02 22:18:00,
2013-02-02 17:23:00,28.6,12.3,30.05,WSW,243,3.0,10.0,50,0.00,,,0.00,Wunderground v.1.15,2013-02-02 22:23:00,
2013-02-02 17:30:00,28.6,12.7,30.05,WNW,303,2.0,2.0,51,0.00,,,0.00,Wunderground v.1.15,2013-02-02 22:30:00,
2013-02-02 17:35:00,28.6,13.2,30.05,WNW,303,2.0,9.0,52,0.00,,,0.00,Wunderground v.1.15,2013-02-02 22:35:00,
2013-02-02 17:41:00,28.5,13.5,30.05,WSW,239,2.0,9.0,53,0.00,,,0.00,Wunderground v.1.15,2013-02-02 22:41:00,
2013-02-02 17:47:00,28.4,13.9,30.05,WSW,256,3.0,9.0,54,0.00,,,0.00,Wunderground v.1.15,2013-02-02 22:47:00,
2013-02-02 17:53:00,28.4,14.3,30.04,WNW,293,2.0,9.0,55,0.00,,,0.00,Wunderground v.1.15,2013-02-02 22:53:00,
2013-02-02 17:59:00,28.4,15.1,30.04,WSW,244,1.0,9.0,57,0.00,,,0.00,Wunderground v.1.15,2013-02-02 22:59:00,
2013-02-02 18:05:00,28.5,14.4,30.04,West,266,2.0,9.0,55,0.00,,,0.00,Wunderground v.1.15,2013-02-02 23:05:00,
2013-02-02 18:12:00,28.5,13.9,30.04,NNW,330,3.0,9.0,54,0.00,,,0.00,Wunderground v.1.15,2013-02-02 23:12:00,
2013-02-02 18:17:00,28.6,13.6,30.04,NW,321,2.0,9.0,53,0.00,,,0.00,Wunderground v.1.15,2013-02-02 23:17:00,
2013-02-02 18:24:00,28.6,13.2,30.04,NW,318,2.0,10.0,52,0.00,,,0.00,Wunderground v.1.15,2013-02-02 23:24:00,
2013-02-02 18:30:00,28.6,13.2,30.04,WNW,291,2.0,2.0,52,0.00,,,0.00,Wunderground v.1.15,2013-02-02 23:30:00,
2013-02-02 18:36:00,28.7,13.3,30.04,WSW,251,2.0,10.0,52,0.00,,,0.00,Wunderground v.1.15,2013-02-02 23:36:00,
2013-02-02 18:42:00,28.9,13.5,30.04,WSW,249,3.0,10.0,52,0.00,,,0.00,Wunderground v.1.15,2013-02-02 23:42:00,
2013-02-02 18:48:00,28.9,13.9,30.04,WSW,251,2.0,10.0,53,0.00,,,0.00,Wunderground v.1.15,2013-02-02 23:48:00,
2013-02-02 18:53:00,29.0,14.4,30.03,WSW,246,1.0,10.0,54,0.00,,,0.00,Wunderground v.1.15,2013-02-02 23:53:00,
2013-02-02 18:59:00,29.0,14.0,30.03,NW,307,1.0,1.0,53,0.00,,,0.00,Wunderground v.1.15,2013-02-02 23:59:00,
2013-02-02 19:05:00,29.0,14.0,30.03,West,266,2.0,10.0,53,0.00,,,0.00,Wunderground v.1.15,2013-02-03 00:05:00,
2013-02-02 19:11:00,29.1,13.6,30.03,SSE,166,2.0,10.0,52,0.00,,,0.00,Wunderground v.1.15,2013-02-03 00:11:00,
2013-02-02 19:17:00,29.3,12.5,30.03,NNW,345,3.0,11.0,49,0.00,,,0.00,Wunderground v.1.15,2013-02-03 00:17:00,
2013-02-02 19:24:00,29.4,12.6,30.03,NW,315,3.0,13.0,49,0.00,,,0.00,Wunderground v.1.15,2013-02-03 00:24:00,
2013-02-02 19:30:00,29.4,12.1,30.03,WNW,296,3.0,3.0,48,0.00,,,0.00,Wunderground v.1.15,2013-02-03 00:30:00,
2013-02-02 19:36:00,29.4,11.6,30.03,NNW,335,2.0,13.0,47,0.00,,,0.00,Wunderground v.1.15,2013-02-03 00:36:00,
2013-02-02 19:42:00,29.5,11.7,30.03,WSW,254,2.0,13.0,47,0.00,,,0.00,Wunderground v.1.15,2013-02-03 00:42:00,
2013-02-02 19:48:00,29.5,11.7,30.03,West,279,2.0,13.0,47,0.00,,,0.00,Wunderground v.1.15,2013-02-03 00:48:00,
2013-02-02 19:54:00,29.5,12.2,30.02,NW,325,3.0,13.0,48,0.00,,,0.00,Wunderground v.1.15,2013-02-03 00:54:00,
2013-02-02 19:59:00,29.6,12.3,30.02,ENE,73,2.0,12.0,48,0.00,,,0.00,Wunderground v.1.15,2013-02-03 00:59:00,
2013-02-02 20:06:00,29.6,12.3,30.02,NW,323,2.0,12.0,48,0.00,,,0.00,Wunderground v.1.15,2013-02-03 01:06:00,
2013-02-02 20:11:00,29.5,12.7,30.02,WNW,303,2.0,5.0,49,0.00,,,0.00,Wunderground v.1.15,2013-02-03 01:11:00,
2013-02-02 20:17:00,29.5,12.7,30.02,West,281,3.0,12.0,49,0.00,,,0.00,Wunderground v.1.15,2013-02-03 01:17:00,
2013-02-02 20:23:00,29.5,12.7,30.02,NNW,347,3.0,12.0,49,0.00,,,0.00,Wunderground v.1.15,2013-02-03 01:23:00,
2013-02-02 20:29:00,29.6,13.2,30.02,NNW,335,2.0,11.0,50,0.00,,,0.00,Wunderground v.1.15,2013-02-03 01:29:00,
2013-02-02 20:36:00,29.6,12.8,30.02,North,4,2.0,11.0,49,0.00,,,0.00,Wunderground v.1.15,2013-02-03 01:36:00,
2013-02-02 20:42:00,29.5,13.1,30.02,WNW,287,3.0,11.0,50,0.00,,,0.00,Wunderground v.1.15,2013-02-03 01:42:00,
2013-02-02 20:48:00,29.4,13.0,30.02,NW,322,4.0,11.0,50,0.00,,,0.00,Wunderground v.1.15,2013-02-03 01:48:00,
2013-02-02 20:54:00,29.4,13.5,30.02,SW,223,3.0,11.0,51,0.00,,,0.00,Wunderground v.1.15,2013-02-03 01:54:00,
2013-02-02 21:00:00,29.4,13.9,30.02,NNW,339,3.0,11.0,52,0.00,,,0.00,Wunderground v.1.15,2013-02-03 02:00:00,
2013-02-02 21:06:00,29.4,14.8,30.03,NNE,19,4.0,11.0,54,0.00,,,0.00,Wunderground v.1.15,2013-02-03 02:06:00,
2013-02-02 21:12:00,29.3,14.7,30.03,NNW,327,4.0,11.0,54,0.00,,,0.00,Wunderground v.1.15,2013-02-03 02:12:00,
2013-02-02 21:18:00,29.3,14.7,30.03,NNW,329,3.0,11.0,54,0.00,,,0.00,Wunderground v.1.15,2013-02-03 02:18:00,
2013-02-02 21:23:00,29.0,16.4,30.03,NW,306,3.0,13.0,59,0.00,,,0.00,Wunderground v.1.15,2013-02-03 02:23:00,
2013-02-02 21:29:00,28.7,17.3,30.03,NW,312,4.0,13.0,62,0.00,,,0.00,Wunderground v.1.15,2013-02-03 02:29:00,
2013-02-02 21:35:00,28.5,17.9,30.03,NW,315,4.0,13.0,64,0.00,,,0.00,Wunderground v.1.15,2013-02-03 02:35:00,
2013-02-02 21:41:00,28.3,18.0,30.03,NNW,328,3.0,13.0,65,0.00,,,0.00,Wunderground v.1.15,2013-02-03 02:41:00,
2013-02-02 21:47:00,28.1,18.5,30.03,NW,316,3.0,13.0,67,0.00,,,0.00,Wunderground v.1.15,2013-02-03 02:47:00,
2013-02-02 21:54:00,27.9,18.0,30.03,WNW,291,4.0,13.0,66,0.00,,,0.00,Wunderground v.1.15,2013-02-03 02:54:00,
2013-02-02 21:59:00,27.7,17.5,30.03,NW,318,4.0,4.0,65,0.00,,,0.00,Wunderground v.1.15,2013-02-03 02:59:00,
2013-02-02 22:06:00,27.7,17.5,30.03,NNW,341,3.0,13.0,65,0.00,,,0.00,Wunderground v.1.15,2013-02-03 03:06:00,
2013-02-02 22:11:00,27.5,17.3,30.03,NNW,327,4.0,13.0,65,0.00,,,0.00,Wunderground v.1.15,2013-02-03 03:11:00,
2013-02-02 22:18:00,27.3,17.4,30.03,NW,313,3.0,13.0,66,0.00,,,0.00,Wunderground v.1.15,2013-02-03 03:18:00,
2013-02-02 22:24:00,27.1,17.6,30.04,NW,314,3.0,13.0,67,0.00,,,0.00,Wunderground v.1.15,2013-02-03 03:24:00,
2013-02-02 22:30:00,26.7,18.2,30.04,NNW,347,3.0,3.0,70,0.00,,,0.00,Wunderground v.1.15,2013-02-03 03:30:00,
2013-02-02 22:36:00,26.5,19.0,30.04,NW,324,3.0,13.0,73,0.00,,,0.00,Wunderground v.1.15,2013-02-03 03:36:00,
2013-02-02 22:42:00,26.2,19.4,30.04,NNW,328,2.0,13.0,75,0.00,,,0.00,Wunderground v.1.15,2013-02-03 03:42:00,
2013-02-02 22:48:00,26.1,19.9,30.04,NNW,330,2.0,13.0,77,0.00,,,0.00,Wunderground v.1.15,2013-02-03 03:48:00,
2013-02-02 22:53:00,26.0,20.4,30.04,North,359,2.0,13.0,79,0.00,,,0.00,Wunderground v.1.15,2013-02-03 03:53:00,
2013-02-02 22:59:00,25.8,20.2,30.04,NNW,347,1.0,9.0,79,0.00,,,0.00,Wunderground v.1.15,2013-02-03 03:59:00,
2013-02-02 23:05:00,25.7,20.1,30.04,North,4,1.0,9.0,79,0.00,,,0.00,Wunderground v.1.15,2013-02-03 04:05:00,
2013-02-02 23:11:00,25.6,20.3,30.04,NW,319,1.0,9.0,80,0.00,,,0.00,Wunderground v.1.15,2013-02-03 04:11:00,
2013-02-02 23:17:00,25.5,19.9,30.04,NW,322,2.0,9.0,79,0.00,,,0.00,Wunderground v.1.15,2013-02-03 04:17:00,
2013-02-02 23:23:00,25.3,19.7,30.04,NW,326,3.0,9.0,79,0.00,,,0.00,Wunderground v.1.15,2013-02-03 04:23:00,
2013-02-02 23:30:00,25.2,20.2,30.03,NNW,335,2.0,2.0,81,0.00,,,0.00,Wunderground v.1.15,2013-02-03 04:30:00,
2013-02-02 23:35:00,25.1,20.1,30.03,NNW,340,1.0,8.0,81,0.00,,,0.00,Wunderground v.1.15,2013-02-03 04:35:00,
2013-02-02 23:42:00,25.0,20.3,30.03,NNW,345,2.0,8.0,82,0.00,,,0.00,Wunderground v.1.15,2013-02-03 04:42:00,
2013-02-02 23:47:00,24.9,20.2,30.03,North,8,1.0,8.0,82,0.00,,,0.00,Wunderground v.1.15,2013-02-03 04:47:00,
2013-02-02 23:54:00,25.0,20.3,30.03,NNW,335,1.0,8.0,82,0.00,,,0.00,Wunderground v.1.15,2013-02-03 04:54:00,